Terminal Aerodrome Forecast
Issued by NWS

Home | Current Version | Previous Version | Text Only | Print | Product List | Glossary On
Versions: 1 2 3 4 5 6 7 8 9 10 11 12 13
137
FTUS45 KTFX 110520
TAFHVR
TAF
KHVR 110520Z 1106/1206 08011KT P6SM SCT070 BKN100
     FM110900 25006KT P6SM VCSH BKN070
     FM111800 30010KT P6SM SCT070 BKN100
     FM120000 35011KT P6SM SCT050 BKN080
     FM120400 08006KT P6SM VCSH SCT020 BKN040=

USA.gov is the U.S. government's official web portal to all federal, state and local government web resources and services.